Regional Weather Roundup
Issued by NWS

Home | Current Version | Previous Version | Graphics & Text | Print | Product List | Glossary On
Versions: 1 2 3 4 5 6 7 8 9 10 11 12 13 14 15 16 17 18 19 20 21 22 23 24 25 26 27 28 29 30 31 32 33 34 35 36 37 38 39 40 41 42 43 44 45 46 47 48 49 50
000
ASUS45 KTFX 260119
RWRMT
MONTANA HOURLY WEATHER ROUNDUP
NATIONAL WEATHER SERVICE GREAT FALLS MT
719 PM MDT SAT OCT 25 2014

NOTE: "FAIR" INDICATES FEW OR NO CLOUDS BELOW 12000 FEET WITH NO
SIGNIFICANT WEATHER AND/OR OBSTRUCTIONS TO VISIBILITY.

* THESE STATIONS ARE NOT UNDER NWS QUALITY CONTROL. THEY DO NOT
   REPORT WEATHER SUCH AS PRECIPITATION OR FOG.

MTZ001>007-043-260200-
WEST OF THE DIVIDE
CITY           SKY/WX    TMP DP  RH WIND       PRES   REMARKS
KALISPELL      MOCLDY    50  43  77 NW3       29.66S
MISSOULA       MOCLDY    46  43  89 VRB5      29.69F
BUTTE          CLOUDY    55  34  45 S13       29.78F
MULLAN PASS    MOCLDY    48  30  50 SW9G20    29.69F
* ESSEX        N/A       49  44  83 N1         N/A
* LINCOLN      N/A       45  43  93 N/A        N/A
* LOOKOUT PASS N/A       43  41  93 S3G9       N/A
* POLSON       N/A       45  42  89 N2         N/A
* RONAN APT    MOCLDY    48  45  89 N/A        N/A
* SEELEY LAKE  N/A       43  40  89 W1         N/A
* THOMP F APT  MOCLDY    58  28  32 S12G22     N/A
* YAAK HILL    N/A       51  39  64 VRB2       N/A
$$

MTZ008-052>055-260200-
SOUTHWEST MONTANA
CITY           SKY/WX    TMP DP  RH WIND       PRES   REMARKS
BOZEMAN        CLOUDY    63  34  34 VRB5      29.76F
DILLON         CLOUDY    61  30  31 S10       29.77F
W YELLOWSTONE  CLOUDY    55  28  35 SW10      29.93F
* THREE FORKS  CLOUDY    54  34  47 N/A        N/A
* BOULDER HILL N/A       56  25  30 S10        N/A
* MONIDA PASS  N/A       56  30  37 S18        N/A
* RAYNOLDS PAS N/A       58  40  51 S20G27     N/A
* WHITEHALL    N/A       54  44  69 N2         N/A
* WISE RIVER   N/A       51  39  64 SE4G10     N/A
$$

MTZ009>010-012-014-046-048-049-054-260200-
EAST SLOPES AND CENTRAL MONTANA
CITY           SKY/WX    TMP DP  RH WIND       PRES   REMARKS
CUT BANK       MOCLDY    48  39  71 E9        29.64F
GREAT FALLS    CLOUDY    52  43  72 E3        29.65F
HELENA         CLOUDY    52  43  72 CALM      29.70F
MALMSTROM AFB  CLOUDY    52  43  72 NE3       29.66F
* CONRAD       CLOUDY    48  45  89 N/A        N/A
* DEARBORN     N/A       54  44  69 SE1        N/A
* EAST GLACIER N/A       43  40  89 E4         N/A
* MONARCH      N/A       61  19  20 S2G8       N/A
* PENDROY      N/A       46  39  77 S7         N/A
* ROGERS PASS  N/A       54  35  49 NW4G9      N/A
* SAINT MARY   N/A       47  40  77 S3         N/A
* SWEET GRASS  N/A       51  37  59 S20        N/A
* WHITE SULPH  N/A       63  29  28 S10        N/A
$$

MTZ011-013-016-021-035-040-045-047-050-051-260200-
NORTH CENTRAL MONTANA
CITY           SKY/WX    TMP DP  RH WIND       PRES   REMARKS
HAVRE          CLOUDY    55  37  51 E10       29.64F
LEWISTOWN      CLOUDY    55  45  69 SE6       29.73F
* FORT BENTON  CLOUDY    59  39  48 E6        29.65F
* CHESTER      N/A       56  38  51 SE3        N/A
* DENTON       N/A       59  33  38 SW9        N/A
* GEYSER       N/A       54  41  62 E6         N/A
* JUDITH GAP   N/A       49  37  63 SW5        N/A
* LOMA         N/A       57  39  51 E10G16     N/A
$$

MTZ017>020-022>027-061-062-260200-
NORTHEAST MONTANA
CITY           SKY/WX    TMP DP  RH WIND       PRES   REMARKS
GLASGOW        CLOUDY    55  30  39 E17       29.74F
GLENDIVE       CLEAR     54  34  47 E9        29.82F
JORDAN         CLOUDY    55  34  45 E9        29.73F
SIDNEY         CLEAR     54  30  40 E7        29.86F
WOLF POINT     CLOUDY    52  32  47 NE7       29.80F
* BEAVER HILL  N/A       56  34  44 E18G25     N/A
* CIRCLE       N/A       58  36  44 E8         N/A
* LINDSAY DVD  N/A       54  34  47 E12        N/A
* NAVAJO       N/A       52  31  45 SE10       N/A
$$

MTZ028>042-056>058-260200-
SOUTHCENTRAL AND SOUTHEAST MONTANA
CITY           SKY/WX    TMP DP  RH WIND       PRES   REMARKS
BAKER          CLEAR     54  34  47 E14       29.86F
BILLINGS       CLOUDY    55  36  49 N8        29.73F
LIVINGSTON     CLOUDY    72  25  17 S28G37    29.75F
MILES CITY     CLEAR     64  36  35 SE7       29.75F
* LAUREL APT   CLOUDY    55  34  45 N/A        N/A
* ROUNDUP APT  CLOUDY    61  36  39 N/A        N/A
* ALZADA       N/A       55  37  51 E9G14      N/A
* HYSHAM       N/A       60  33  36 E3         N/A
* LAME DEER    N/A       64  31  29 SE11       N/A
* REED POINT   N/A       55  36  49 NE2        N/A
* ROSCOE HILL  N/A       62  24  23 NW8        N/A
$$

REGIONAL REPORTS...DAKOTAS
CITY           SKY/WX    TMP DP  RH WIND       PRES   REMARKS
WILLISTON      CLEAR     52  30  43 E7        29.89F
DICKINSON      CLEAR     50  32  50 SE13      29.90F
BEACH          N/A       54  32  43 SE16G21   29.85F
CROSBY         CLEAR     45  32  60 SE7       29.91F
TIOGA          CLEAR     45  28  51 SE12      29.95F
BISMARCK       CLEAR     46  30  54 E7        30.01F
GRAND FORKS    CLEAR     45  25  45 W6        30.01F
FARGO          CLEAR     46  25  44 S3        30.04F
BUFFALO SD     CLEAR     54  30  40 SE15      29.85F
RAPID CITY     CLEAR     50  37  61 SE5       29.95F
$$

REGIONAL REPORTS...WYOMING/IDAHO/WASHINGTON
CITY           SKY/WX    TMP DP  RH WIND       PRES   REMARKS
GILLETTE       CLEAR     61  34  36 S18       29.86F
SHERIDAN       PTCLDY    54  37  53 SW9       29.79F
CODY           PTCLDY    63  21  20 CALM      29.80F
YELLOWSTONE LA PTCLDY    48  27  44 VRB5      30.03F
SALMON         MOCLDY    45  41  86 CALM      29.77R
MULLAN PASS    MOCLDY    48  30  50 SW9G20    29.69S
SAND POINT     MOCLDY    50  43  77 CALM      29.54F
SPOKANE        LGT RAIN  63  43  48 SW18G24   29.53S
$$

REGIONAL REPORTS...ALBERTA
CITY           SKY/WX    TMP DP  RH WIND       PRES   REMARKS
CALGARY        FAIR      43  30  60 S14       29.57F
LETHBRIDGE     PTCLDY    45  37  74 S18       29.60F
MEDICINE HAT   MOCLDY    52  37  57 E8        29.60F
EDMONTON       MOCLDY    45  25  45 SE22G28   29.60F
WATERTON GATE  N/A       45  36  71 E5         N/A
CARDSTON       N/A       43  36  76 NW5        N/A
MILK RIVER     N/A       50  37  61 S14        N/A
$$

REGIONAL REPORTS...SASKATCHEWAN
CITY           SKY/WX    TMP DP  RH WIND       PRES   REMARKS
SWIFT CURRENT  CLEAR     48  28  46 E21G28    29.73F
REGINA         MOCLDY    48  30  50 SE12      29.88F
VAL MARIE      N/A       48  34  59 E9         N/A
ASSINIBOIA     N/A       50  30  46 SE12       N/A
CORONACH       N/A       50  34  54 E9         N/A

$$




USA.gov is the U.S. government's official web portal to all federal, state and local government web resources and services.